TimeMST,TemperatureF,Dew PointF,Humidity,Sea Level PressureIn,VisibilityMPH,Wind Direction,Wind SpeedMPH,Gust SpeedMPH,PrecipitationIn,Events,Conditions,WindDirDegrees,DateUTC
12:53 AM,25.0,19.9,81,30.13,10.0,SSW,9.2,-,N/A,,Overcast,210,2013-02-18 07:53:00
1:53 AM,26.1,21.0,81,30.12,10.0,SSW,8.1,-,N/A,,Overcast,210,2013-02-18 08:53:00
2:53 AM,26.1,21.0,81,30.14,10.0,SSW,10.4,-,N/A,,Overcast,200,2013-02-18 09:53:00
3:53 AM,25.0,19.9,81,30.14,10.0,SSW,8.1,-,N/A,,Overcast,210,2013-02-18 10:53:00
4:53 AM,24.1,19.0,81,30.14,10.0,SW,9.2,-,N/A,,Overcast,220,2013-02-18 11:53:00
5:53 AM,24.1,19.0,81,30.16,10.0,SW,6.9,-,N/A,,Overcast,230,2013-02-18 12:53:00
6:53 AM,21.0,17.1,85,30.19,10.0,SW,5.8,-,N/A,,Overcast,220,2013-02-18 13:53:00
7:53 AM,19.0,16.0,88,30.21,10.0,Calm,Calm,-,N/A,,Scattered Clouds,0,2013-02-18 14:53:00
8:19 AM,15.8,12.2,86,30.09,1.2,Calm,Calm,-,N/A,,Clear,0,2013-02-18 15:19:00
8:26 AM,14.0,12.2,93,30.09,10.0,Calm,Calm,-,N/A,Fog,Shallow Fog,0,2013-02-18 15:26:00
8:53 AM,15.1,12.9,91,30.22,10.0,Calm,Calm,-,N/A,Fog,Clear,0,2013-02-18 15:53:00
9:53 AM,18.0,14.0,84,30.22,10.0,North,4.6,-,N/A,Fog,Scattered Clouds,350,2013-02-18 16:53:00
10:53 AM,23.0,17.1,78,30.20,10.0,NNW,3.5,-,N/A,,Clear,340,2013-02-18 17:53:00
11:53 AM,30.0,19.9,66,30.18,10.0,SW,5.8,-,N/A,,Clear,230,2013-02-18 18:53:00
12:53 PM,32.0,18.0,56,30.17,10.0,SW,8.1,-,N/A,,Scattered Clouds,230,2013-02-18 19:53:00
1:53 PM,32.0,18.0,56,30.15,10.0,SW,6.9,-,N/A,,Clear,230,2013-02-18 20:53:00
2:53 PM,32.0,18.0,56,30.14,10.0,Calm,Calm,-,N/A,,Mostly Cloudy,0,2013-02-18 21:53:00
2:58 PM,32.0,17.6,55,30.05,10.0,SW,4.6,-,N/A,,Mostly Cloudy,230,2013-02-18 21:58:00
3:53 PM,35.1,17.1,48,30.12,10.0,South,8.1,-,N/A,,Mostly Cloudy,190,2013-02-18 22:53:00
4:53 PM,34.0,17.1,50,30.11,10.0,South,8.1,-,N/A,,Clear,180,2013-02-18 23:53:00
5:53 PM,32.0,17.1,54,30.10,10.0,South,8.1,-,N/A,,Clear,190,2013-02-19 00:53:00
6:53 PM,30.0,17.1,59,30.10,10.0,South,3.5,-,N/A,,Clear,180,2013-02-19 01:53:00
7:53 PM,23.0,15.1,72,30.13,10.0,Calm,Calm,-,N/A,,Clear,0,2013-02-19 02:53:00
8:53 PM,18.0,12.0,78,30.14,10.0,NNE,3.5,-,N/A,,Clear,20,2013-02-19 03:53:00
9:53 PM,15.1,10.0,80,30.12,10.0,North,4.6,-,N/A,,Clear,360,2013-02-19 04:53:00
10:53 PM,15.1,9.0,77,30.09,10.0,North,6.9,-,N/A,,Clear,350,2013-02-19 05:53:00
11:53 PM,12.9,7.0,77,30.04,10.0,North,4.6,-,N/A,,Clear,350,2013-02-19 06:53:00